Weather History for Dayton, OH

Change the Weather History Date:

Wednesday, April 24, 2013

  Actual Average Record
Temperature  
Mean Temperature 50 °F 55 °F  
Max Temperature 65 °F 65 °F 88 °F (1925)
Min Temperature 35 °F 44 °F 24 °F (1911)
Degree Days  
Heating Degree Days 15 11  
Month to date heating degree days 313 353  
Since 1 July heating degree days 5275 5392  
Cooling Degree Days 0 1  
Month to date cooling degree days 16 4  
Year to date cooling degree days 16 4  
Moisture  
Dew Point 42 °F    
Average Humidity 78    
Maximum Humidity 100    
Minimum Humidity 56    
Precipitation  
Precipitation 0.77 in 0.14 in 1.76 in (1937)
Month to date precipitation 3.60 3.25  
Year to date precipitation 11.15 11.54  
Snow  
Snow 0.00 in 0.00 in 0.20 in (1995)
Month to date snowfall 0.4 0.6  
Since 1 July snowfall 36.3 23.3  
Snow Depth 0.00 in    
Sea Level Pressure  
Sea Level Pressure 29.93 in    
Wind  
Wind Speed 12 mph (WNW)    
Max Wind Speed 24 mph    
Max Gust Speed 31 mph    
Visibility 6 miles    
Events Rain    
T = Trace of Precipitation, MM = Missing Value Source: NWS Daily Summary

Daily Weather History Graph

Daily Weather History Graph

Search for Another Location

Airport:

Trip Planner

Search our weather history database for the weather conditions in past years. The results will help you decide how hot, cold, wet, or windy it might be!

Date:

Astronomy

Apr. 24, 2013 Rise Set
Actual Time 6:45 AM EDT 8:24 PM EDT
Civil Twilight 6:17 AM EDT 8:53 PM EDT
Nautical Twilight 5:42 AM EDT 9:28 PM EDT
Astronomical Twilight 5:05 AM EDT 10:05 PM EDT
Moon 7:26 PM EDT 5:48 AM EDT
Length of Visible Light 14h 36m
Length of Day
13h 38m
Waxing Gibbous, 98% of the Moon is Illuminated
Apr 24
Waxing Gibbous
Apr 25
Full
May 2
Last Quarter
May 9
New
May 18
First Quarter

Hourly Weather History & Observations

Time (EDT) Temp. Windchill Dew Point Humidity Pressure Visibility Wind Dir Wind Speed Gust Speed Precip Events Conditions
12:56 AM 64.0 °F - 48.0 °F 56% 29.82 in 10.0 mi South 13.8 mph 21.9 mph 0.00 in   Overcast
1:56 AM 63.0 °F - 51.1 °F 65% 29.81 in 6.0 mi SSW 13.8 mph 25.3 mph 0.01 in Rain Light Rain
2:56 AM 62.1 °F - 51.1 °F 67% 29.78 in 10.0 mi SSW 13.8 mph - 0.03 in   Overcast
3:56 AM 63.0 °F - 51.1 °F 65% 29.78 in 10.0 mi SW 15.0 mph - N/A   Overcast
4:56 AM 59.0 °F - 55.0 °F 87% 29.78 in 5.0 mi WSW 13.8 mph - 0.01 in Rain Heavy Rain
5:56 AM 57.9 °F - 55.9 °F 93% 29.79 in 8.0 mi WSW 10.4 mph - 0.01 in Rain Light Rain
6:03 AM 57.2 °F - 55.4 °F 94% 29.81 in 7.0 mi West 12.7 mph - 0.01 in Rain Light Rain
6:56 AM 55.0 °F - 54.0 °F 96% 29.80 in 3.0 mi WNW 9.2 mph 18.4 mph 0.10 in Rain Rain
6:58 AM 53.6 °F - 53.6 °F 100% 29.81 in 3.0 mi NW 10.4 mph 18.4 mph 0.01 in Rain Rain
7:09 AM 51.8 °F - 50.0 °F 94% 29.80 in 2.0 mi NW 9.2 mph - 0.02 in Rain Light Rain
7:44 AM 48.2 °F - 46.4 °F 93% 29.83 in 1.0 mi WNW 6.9 mph - 0.02 in Rain Rain
7:56 AM 48.0 °F - 46.9 °F 96% 29.82 in 2.0 mi NW 8.1 mph - 0.13 in Rain Light Rain
8:10 AM 46.4 °F 41.5 °F 46.4 °F 100% 29.82 in 10.0 mi NW 10.4 mph - 0.01 in Rain Light Rain
8:45 AM 46.4 °F 41.9 °F 44.6 °F 93% 29.85 in 2.0 mi WNW 9.2 mph - 0.04 in Rain Heavy Rain
8:56 AM 46.9 °F - 45.0 °F 93% 29.84 in 3.0 mi NW 9.2 mph - 0.09 in Rain Rain
9:06 AM 46.4 °F 41.5 °F 44.6 °F 93% 29.84 in 5.0 mi NW 10.4 mph - 0.02 in Rain Rain
9:35 AM 46.4 °F 40.7 °F 44.6 °F 93% 29.85 in 9.0 mi WNW 12.7 mph - 0.07 in Rain Light Rain
9:56 AM 45.0 °F 38.9 °F 44.1 °F 97% 29.83 in 3.0 mi NW 12.7 mph - 0.13 in Rain Rain
10:22 AM 44.6 °F 37.4 °F 42.8 °F 93% 29.83 in 5.0 mi NNW 16.1 mph - 0.05 in Rain Rain
10:42 AM 44.6 °F 39.7 °F 42.8 °F 93% 29.84 in 3.0 mi NNW 9.2 mph - 0.10 in Rain Rain
10:46 AM 44.6 °F 38.8 °F 42.8 °F 93% 29.84 in 4.0 mi NW 11.5 mph - 0.10 in Rain Light Rain
10:56 AM 44.1 °F 40.1 °F 42.1 °F 93% 29.86 in 4.0 mi WNW 6.9 mph - 0.12 in Rain Rain
11:56 AM 44.1 °F 37.4 °F 42.1 °F 93% 29.87 in 10.0 mi WNW 13.8 mph - 0.11 in Rain Light Rain
12:00 PM 44.6 °F 37.4 °F 42.8 °F 93% 29.88 in 10.0 mi WNW 16.1 mph - 0.00 in Rain Light Rain
12:38 PM 42.8 °F 35.4 °F 41.0 °F 93% 29.90 in 2.0 mi NW 15.0 mph - 0.01 in Rain Light Rain
12:45 PM 42.8 °F 35.4 °F 41.0 °F 93% 29.91 in 1.5 mi WNW 15.0 mph - 0.01 in Rain Light Rain
12:48 PM 42.8 °F 35.8 °F 41.0 °F 93% 29.91 in 1.5 mi NW 13.8 mph - 0.01 in Rain Light Rain
12:56 PM 42.1 °F 34.2 °F 41.0 °F 96% 29.93 in 1.8 mi WNW 16.1 mph 23.0 mph 0.02 in Rain Light Rain
12:58 PM 42.8 °F 34.8 °F 41.0 °F 93% 29.92 in 2.0 mi WNW 17.3 mph 23.0 mph 0.00 in Rain Light Rain
1:07 PM 42.8 °F 34.8 °F 41.0 °F 93% 29.93 in 2.0 mi WNW 17.3 mph 24.2 mph 0.00 in Rain Light Rain
1:19 PM 42.8 °F 36.2 °F 39.2 °F 87% 29.93 in 3.0 mi NW 12.7 mph - 0.00 in Rain Light Rain
1:36 PM 42.8 °F 34.8 °F 39.2 °F 87% 29.95 in 3.0 mi WNW 17.3 mph - 0.01 in Rain Light Rain
1:56 PM 41.0 °F 32.2 °F 37.9 °F 89% 29.96 in 10.0 mi WNW 18.4 mph 25.3 mph 0.01 in   Overcast
2:12 PM 39.2 °F 30.5 °F 37.4 °F 93% 29.95 in 4.0 mi WNW 16.1 mph 24.2 mph N/A   Overcast
2:37 PM 41.0 °F 32.5 °F 37.4 °F 87% 29.97 in 10.0 mi WNW 17.3 mph 23.0 mph 0.00 in   Overcast
2:56 PM 39.9 °F 31.1 °F 36.0 °F 86% 29.99 in 10.0 mi WNW 17.3 mph - 0.00 in   Overcast
3:07 PM 39.2 °F 29.6 °F 37.4 °F 93% 29.99 in 10.0 mi WNW 19.6 mph - N/A   Overcast
3:41 PM 41.0 °F 31.6 °F 37.4 °F 87% 30.01 in 10.0 mi WNW 20.7 mph 28.8 mph N/A   Overcast
3:56 PM 41.0 °F 31.9 °F 36.0 °F 82% 30.02 in 10.0 mi NW 19.6 mph 27.6 mph N/A   Overcast
4:56 PM 41.0 °F 31.4 °F 35.1 °F 79% 30.06 in 10.0 mi WNW 21.9 mph - N/A   Overcast
5:38 PM 42.8 °F 35.1 °F 35.6 °F 76% 30.08 in 10.0 mi WNW 16.1 mph - N/A   Mostly Cloudy
5:56 PM 44.1 °F 37.1 °F 33.1 °F 65% 30.10 in 10.0 mi WNW 15.0 mph 23.0 mph N/A   Mostly Cloudy
6:56 PM 44.1 °F 37.1 °F 33.1 °F 65% 30.13 in 10.0 mi West 15.0 mph - N/A   Mostly Cloudy
7:56 PM 43.0 °F 36.8 °F 35.1 °F 74% 30.15 in 10.0 mi West 11.5 mph - N/A   Mostly Cloudy
8:56 PM 39.9 °F 34.5 °F 34.0 °F 79% 30.18 in 10.0 mi West 8.1 mph - N/A   Scattered Clouds
9:56 PM 37.0 °F 32.4 °F 33.1 °F 86% 30.22 in 10.0 mi West 5.8 mph - N/A   Scattered Clouds
10:56 PM 37.0 °F 31.6 °F 34.0 °F 89% 30.24 in 10.0 mi SW 6.9 mph - N/A   Partly Cloudy
11:56 PM 37.0 °F 33.3 °F 34.0 °F 89% 30.24 in 10.0 mi WSW 4.6 mph - N/A   Scattered Clouds